COSMOS 1275 DEB, 12720

Orbit data source: Space-Track

COSMOS 1275 DEB, 12720 is space debris in LEO originally from a launch on Thu, 04 Jun 1981 UTC launched from the Plesetsk Missile And Space Complex (PKMTR). Debris objects in space refer to the collection of defunct objects orbiting the Earth. Examples of debris include non-operational satellites, rocket bodies, and fragments generated from explosions, collisions, or faulty payload assembly.

Loading next visibility...
Identifier
12720, 1981-053BM
Orbit
LEO
Country
Flag of CISCIS
Related business
Manufacturer
Unknown
Mission
Spacecraft
Bus & Motor
Unknown
Mass
Unknown
Launch date (UTC)
1981-06-04 (45 years ago)
Launch vehicle
Unknown
Launch site
Plesetsk Missile And Space Complex (PKMTR)
Object type
Payload
Rocket body
Debris
Shape & HBR
Unknown shape, 0.1 m
Radar Cross Section
Medium (>0.1 m² and <1 m²)

Expand to show TLE details & history
Last TLE update: 6 hours ago

TLE from 6 hours ago
0 COSMOS 1275 DEB
1 12720U 81053BM  26255.29553691  .00001032  00000-0  81690-3 0  9992
2 12720  83.2549   5.1279 0109797 285.2030 102.6291 13.87843304121727
Epoch: 2026-09-12T07:05Z
TLE epoch observation values (Epoch: 2026-09-12T07:05:34.389Z)
Latitude
28.88106°
Longitude
-88.85095°
Altitude
958.191 km
Speed
7.366 km/s
True Right ascension
00h 35m 23s
True Declination
28° 44' 23"
Sunlit
Object was in full shadow at epoch
Visualization orbit readout
Latitude
Unknown
Longitude
Unknown
Altitude
Unknown
Speed
Unknown
Apparent Right ascension
Unknown
Apparent Declination
Unknown
Sunlit
N/A
Visualization observer readout
Local Sidereal Time
05:38:37
Azimuth
Unknown
Elevation
Unknown
Doppler factor
Unknown
Orbital elements
Apogee altitude
1,013.595 km
Perigee altitude
853.04 km
Semi-major axis
7,311.454 km
Eccentricity
0.01098
Inclination
83.2549°
RAAN
5.1279°
Arg. of periapsis
285.203°
True anomaly
103.85307°
Mean anomaly
102.6291°
Eccentric anomaly
103.24147°
Mean motion
3.47166 °/min
Orbital period
103.7 mins
BSTAR
0.0008169
Loading maneuver chart data...
Computing Atmospheric mass density...
Loading historical data...
Loading historical data...
Loading historical data...
Loading historical data...
Loading historical data...
Loading historical data...
Loading historical data...

Documentation

Showing up to 5 results
|